Douglas, WY

2:54 PM MDT on September 26, 2016 (GMT -0600)
Converse County

Weather History for KDGW - November, 2013

Change the Weather History Date:

Tuesday, November 5, 2013

  Actual Average Record
Temperature  
Mean Temperature 29 °F 38 °F  
Max Temperature 39 °F 53 °F 73 °F (1975)
Min Temperature 18 °F 24 °F 2 °F (2003)
Degree Days  
Heating Degree Days 36 27  
Month to date heating degree days 149 129  
Since 1 July heating degree days 967 996  
Cooling Degree Days 0 0  
Month to date cooling degree days 0 0  
Year to date cooling degree days 739 486  
Moisture  
Dew Point 19 °F    
Average Humidity 62    
Maximum Humidity 92    
Minimum Humidity 32    
Precipitation  
Precipitation T in 0.02 in 0.04 in (2008)
Month to date precipitation 0.13 0.15  
Year to date precipitation 7.44 12.49  
Sea Level Pressure  
Sea Level Pressure 30.12 in    
Wind  
Wind Speed 9 mph (WNW)    
Max Wind Speed 22 mph    
Max Gust Speed 28 mph    
Visibility 10 miles    
Events      
T = Trace of Precipitation, MM = Missing Value Source: NWS Daily Summary

Daily Weather History Graph

Daily Weather History Graph

Search for Another Location

Airport or City:

Trip Planner

Search our weather history database for the weather conditions in past years. The results will help you decide how hot, cold, wet, or windy it might be!

Date:

Astronomy

Nov. 05, 2013 Rise Set
Actual Time 6:41 AM MST 4:48 PM MST
Civil Twilight 6:11 AM MST 5:18 PM MST
Nautical Twilight 5:37 AM MST 5:51 PM MST
Astronomical Twilight 5:04 AM MST 6:24 PM MST
Moon 9:00 AM MST (11/5) 6:50 PM MST (11/5)
Length of Visible Light 11h 06m
Length of Day
10h 07m
Waxing Crescent, 7% of the Moon is Illuminated
Nov 5
Waxing Crescent
Nov 9
First Quarter
Nov 17
Full
Nov 25
Last Quarter
Dec 2
New

Hourly Weather History & Observations

Time (MST) Temp. Windchill Dew Point Humidity Pressure Visibility Wind Dir Wind Speed Gust Speed Precip Events Conditions
12:07 AM 30.2 °F 22.6 °F 28.4 °F 93% 30.00 in 10.0 mi SSE 8.1 mph - N/A   Overcast
12:53 AM 30.0 °F 24.1 °F 28.0 °F 92% 30.06 in 10.0 mi SSE 5.8 mph - N/A   Overcast
1:53 AM 30.0 °F 26.5 °F 28.0 °F 92% 30.05 in 10.0 mi SSW 3.5 mph - N/A   Overcast
2:53 AM 28.9 °F - 27.0 °F 92% 30.04 in 10.0 mi Calm Calm - N/A   Overcast
3:53 AM 28.9 °F 19.8 °F 25.0 °F 85% 30.06 in 10.0 mi WNW 10.4 mph - N/A   Overcast
4:53 AM 26.1 °F 13.1 °F 23.0 °F 88% 30.10 in 10.0 mi WNW 17.3 mph 23.0 mph 0.00 in   Mostly Cloudy
5:05 AM 26.6 °F 15.7 °F 21.2 °F 80% 30.03 in 10.0 mi WNW 12.7 mph - N/A   Mostly Cloudy
5:14 AM 26.6 °F 14.7 °F 21.2 °F 80% 30.03 in 10.0 mi WNW 15.0 mph - N/A   Scattered Clouds
5:53 AM 25.0 °F 13.1 °F 21.0 °F 85% 30.13 in 10.0 mi WNW 13.8 mph - N/A   Clear
6:53 AM 25.0 °F 14.2 °F 21.0 °F 85% 30.15 in 10.0 mi WNW 11.5 mph - N/A   Scattered Clouds
7:53 AM 28.0 °F 17.5 °F 21.9 °F 78% 30.17 in 10.0 mi WNW 12.7 mph - N/A   Clear
8:53 AM 30.0 °F 17.2 °F 23.0 °F 75% 30.17 in 10.0 mi WNW 20.7 mph - N/A   Clear
9:53 AM 32.0 °F 20.8 °F 21.9 °F 66% 30.17 in 10.0 mi NW 17.3 mph - N/A   Clear
10:53 AM 33.1 °F 23.4 °F 23.0 °F 66% 30.17 in 10.0 mi WNW 13.8 mph - N/A   Clear
11:53 AM 35.1 °F 24.5 °F 18.0 °F 50% 30.14 in 10.0 mi NW 18.4 mph 25.3 mph N/A   Scattered Clouds
12:53 PM 34.0 °F 23.4 °F 15.1 °F 46% 30.13 in 10.0 mi WNW 17.3 mph - N/A   Clear
1:53 PM 39.0 °F 30.6 °F 14.0 °F 36% 30.09 in 10.0 mi WNW 15.0 mph 23.0 mph N/A   Scattered Clouds
2:53 PM 37.0 °F 28.5 °F 12.9 °F 37% 30.11 in 10.0 mi WNW 13.8 mph - N/A   Partly Cloudy
3:53 PM 37.0 °F 30.4 °F 10.9 °F 34% 30.11 in 10.0 mi NW 9.2 mph - N/A   Clear
4:53 PM 30.9 °F 24.3 °F 12.0 °F 46% 30.14 in 10.0 mi NW 6.9 mph - N/A   Clear
5:53 PM 28.9 °F - 12.9 °F 51% 30.17 in 10.0 mi Calm Calm - N/A   Clear
6:53 PM 25.0 °F 18.1 °F 14.0 °F 63% 30.19 in 10.0 mi SW 5.8 mph - N/A   Clear
7:53 PM 23.0 °F - 12.9 °F 65% 30.19 in 10.0 mi Calm Calm - N/A   Clear
8:53 PM 18.0 °F 12.7 °F 12.9 °F 81% 30.21 in 10.0 mi East 3.5 mph - N/A   Clear
9:53 PM 21.0 °F - 14.0 °F 74% 30.19 in 10.0 mi Calm Calm - N/A   Clear
10:53 PM 21.9 °F - 12.0 °F 66% 30.17 in 10.0 mi Calm Calm - N/A   Clear
11:53 PM 19.9 °F - 12.9 °F 74% 30.17 in 10.0 mi Calm Calm - N/A   Clear